Location: Unspecified
(20.0000°S, 0.0000°E)
Time: 10:47:13
(UTC+00:00)

XW-2D - Visible Passes

Search period start: 17 October 2019 00:00
Search period end: 27 October 2019 00:00
Orbit: 507 x 528 km, 97.5° (Epoch: 17 October)

Date Brightness Start Highest point End Pass type
(mag) Time Alt. Az. Time Alt. Az. Time Alt. Az.
17 Oct ? 04:42:30 10° ENE 04:45:17 20° ESE 04:48:05 10° SSE visible
18 Oct ? 04:29:35 10° E 04:31:15 13° ESE 04:32:56 10° SE visible
21 Oct ? 18:36:55 10° SW 18:39:18 16° WSW 18:41:39 10° WNW visible
22 Oct ? 18:22:05 10° SSW 18:25:16 25° WSW 18:28:23 10° NW visible
23 Oct ? 04:51:19 10° NE 04:54:31 27° ESE 04:57:46 10° SSE visible
24 Oct ? 04:37:57 10° ENE 04:40:28 17° ESE 04:43:01 10° SSE visible
25 Oct ? 04:25:30 10° E 04:26:27 11° ESE 04:27:25 10° ESE visible
